This demonstration page uses our WeatherBlox Daily Observations layout. Learn more.

41.55636, -103.73856

Hourly Observations for May 9, 2018

Temp ( °F °C ) Dew Point ( °F °C ) Humidity (%) Winds ( mph kmh ) Pressure ( in mb ) Visibility ( mi km ) Precip ( " mm )
12:58 am 00:58 Clear 50 9.8 40 4.5 70 70 Calm 30.01 1016 10 16.0934 N/A
1:58 am 01:58 Clear 48 8.9 40 4.6 75 75 W 3 6 30 1016 10 16.0934 N/A
3:56 am 03:56 Clear 47 8.1 40 4.4 78 78 WSW 6 9 29.99 1016 10 16.0934 N/A
4:58 am 04:58 Clear 45 7 39 4.1 82 82 W 8 13 29.98 1015 10 16.0934 N/A
5:58 am 05:58 Sunny 45 7.3 40 4.2 81 81 WNW 8 13 29.99 1016 10 16.0934 N/A
6:58 am 06:58 Sunny 50 10.1 44 6.4 78 78 NW 5 7 29.98 1015 10 16.0934 N/A
7:58 am 07:58 Sunny 59 15 44 6.9 59 59 W 7 11 29.98 1015 10 16.0934 N/A
8:58 am 08:58 Sunny 65 18.1 40 4.3 40 40 SW 6 9 29.97 1015 10 16.0934 N/A
9:58 am 09:58 Sunny 67 19.2 41 4.8 39 39 S 5 7 29.97 1015 10 16.0934 N/A
10:58 am 10:58 Sunny 69 20.6 39 4.1 34 34 SW 3 6 29.97 1015 10 16.0934 N/A
11:58 am 11:58 Mostly Sunny 71 21.9 40 4.5 32 32 SSW 8 13 29.96 1015 10 16.0934 N/A
12:58 pm 12:58 Sunny 72 22 39 4 31 31 S 5 7 29.95 1014 10 16.0934 N/A
1:58 pm 13:58 Mostly Sunny 72 22 38 3.5 30 30 W 7 11 29.94 1014 10 16.0934 N/A
2:58 pm 14:58 Sunny 74 23.6 37 3 26 26 NW 7 11 29.72 1007 10 16.0934 N/A
3:58 pm 15:58 Sunny 76 24.2 38 3.6 26 26 ENE 3 6 29.91 1013 10 16.0934 N/A
4:58 pm 16:58 Sunny 75 24 38 3.2 26 26 Calm 29.9 1013 10 16.0934 N/A
5:58 pm 17:58 Sunny 75 23.7 39 4.1 28 28 E 5 7 29.89 1012 10 16.0934 N/A
6:58 pm 18:58 Sunny 72 22.3 41 4.9 32 32 SE 8 13 29.89 1012 10 16.0934 N/A
7:58 pm 19:58 Sunny 65 18.3 44 6.7 47 47 ESE 13 20 29.87 1012 10 16.0934 N/A
8:58 pm 20:58 Partly Cloudy 62 16.8 45 7 53 53 SE 12 19 29.88 1012 10 16.0934 N/A
9:58 pm 21:58 Cloudy 59 15.1 47 8.5 65 65 N 10 17 29.94 1014 10 16.0934 N/A
10:58 pm 22:58 Windy with Rain Showers Likely 56 13.3 50 9.9 80 80 NNW 21 33 29.98 1015 10 16.0934 N/A
11:58 pm 23:58 Partly Cloudy 54 12 49 9.2 83 83 ESE 16 26 29.92 1013 10 16.0934 0.16 4.064

Powered by AerisWeather